Location: Newark
(46.4800°N, 89.7900°W)
Time: 09:13:15
(UTC+00:00)

ISS - Visible Passes

Search period start: 20 January 2020 00:00
Search period end: 30 January 2020 00:00
Orbit: 415 x 421 km, 51.6° (Epoch: 20 January)

Date Brightness Start Highest point End Pass type
(mag) Time Alt. Az. Time Alt. Az. Time Alt. Az.
20 Jan -1.4 00:23:27 10° SSE 00:24:17 12° SSE 00:24:17 12° SSE visible
21 Jan -1.6 01:10:14 10° SW 01:11:36 22° SSW 01:11:36 22° SSW visible
22 Jan -2.8 00:22:35 10° SSW 00:25:36 31° SE 00:25:52 31° SE visible
22 Jan -2.0 23:35:12 10° S 23:37:45 20° SE 23:40:03 11° E visible
23 Jan -2.2 01:10:52 10° WSW 01:13:00 36° WSW 01:13:00 36° WSW visible
24 Jan -3.8 00:22:52 10° SW 00:26:13 74° SSE 00:27:06 45° ENE visible
24 Jan -0.1 02:00:03 10° W 02:00:03 10° W 02:00:03 10° W visible
24 Jan -3.2 23:35:00 10° SW 23:38:15 48° SE 23:41:09 12° ENE visible
25 Jan -2.1 01:11:50 10° W 01:14:05 33° WNW 01:14:05 33° WNW visible
26 Jan -3.4 00:23:38 10° W 00:26:58 56° NNW 00:28:05 35° NE visible
26 Jan -3.7 23:35:31 10° WSW 23:38:53 78° NNW 23:42:03 11° ENE visible
27 Jan -1.9 01:12:52 10° WNW 01:14:58 27° NW 01:14:58 27° NW visible
28 Jan -2.8 00:24:38 10° W 00:27:48 37° N 00:28:54 28° NNE visible
28 Jan -3.0 23:36:23 10° W 23:39:38 44° NNW 23:42:48 11° ENE visible
29 Jan -1.9 01:13:47 10° WNW 01:15:44 25° NW 01:15:44 25° NW visible
